Regional Weather Roundup
Issued by NWS Green Bay, WI

Home | Current Version | Previous Version | Text Only | Print | Product List | Glossary On
Versions: 1 2 3 4 5 6 7 8 9 10 11 12 13 14 15 16 17 18 19 20 21 22 23 24 25 26 27 28 29 30 31 32 33 34 35 36 37 38 39 40 41 42 43 44 45 46 47 48 49 50
000
ASUS43 KGRB 220810
RWRGRB

NORTH-CENTRAL AND NORTHEAST WISCONSIN REGIONAL WEATHER ROUNDUP
NATIONAL WEATHER SERVICE GREEN BAY WI
300 AM CDT FRI AUG 22 2014

WIZ005-009-010>012-018-019-220900-
NORTH CENTRAL WISCONSIN

CITY           SKY/WX    TMP DP  RH WIND       PRES   REMARKS
IRONWOOD       CLOUDY    66  64  94 SE6       29.89S
MANITOWISH WTR CLOUDY    64  64 100 CALM      29.93S FOG
ARBOR VITAE    CLOUDY    64  62  91 SE6       29.93F FOG
EAGLE RIVER    CLOUDY    63  63 100 SE5       29.94F
LAND O LAKES   CLOUDY    63  63  98 CALM      29.95F FOG
RHINELANDER    CLOUDY    63  62  97 SE6       29.94F FOG
PHILLIPS       CLOUDY    65  65  99 SE6       29.90F FOG
ANTIGO         FOG       63  63 100 E5        29.94F VSB 1/2
TOMAHAWK       CLOUDY    64  63  96 CALM      29.93F FOG
MERRILL        FOG       65  65 100 CALM      29.92F VSB 1/2
$$

WIZ013-073-220900-
NORTHEAST WISCONSIN

CITY           SKY/WX    TMP DP  RH WIND       PRES   REMARKS
IRON MOUNTAIN  CLOUDY    63  61  93 SE3       29.94F
MARINETTE      CLOUDY    66  63  88 E3        29.92F
OCONTO         CLOUDY    66  65  99 CALM      29.91F
$$

WIZ017-030-035>037-045-220900-
CENTRAL WISCONSIN

CITY           SKY/WX    TMP DP  RH WIND       PRES   REMARKS
MEDFORD        FOG       65  65 100 SE5       29.91F VSB 1/4
WAUSAU         FOG       65  65 100 SE7       29.90F VSB 1/4
MOSINEE        FOG       64  64 100 E3        29.92F VSB 1/4
MARSHFIELD     CLOUDY    71  69  93 SE5       29.89F FOG
WISC RAPIDS    CLOUDY    71  70  96 SE3       29.90F FOG
STEVENS POINT  FOG       65  65  99 E5        29.91S VSB 1/4
WAUPACA        CLOUDY    71  69  95 CALM      29.90F FOG
SHAWANO        CLOUDY    68  65  91 E6        29.92F FOG
CLINTONVILLE   CLOUDY    64  64 100 CALM      29.90F FOG
$$

WIZ038-039-048-051-220900-
FOX VALLEY

CITY           SKY/WX    TMP DP  RH WIND       PRES   REMARKS
NWS GREEN BAY  CLOUDY    66  65  96 NE3       29.91F FOG
APPLETON       CLOUDY    68  66  94 SE6       29.90F FOG
OSHKOSH        CLOUDY    71  70  96 SE5       29.89F FOG
FOND DU LAC    CLOUDY    70  68  93 CALM      29.90F FOG
$$

WIZ022-050-052-220900-
EAST CENTRAL WISCONSIN

CITY           SKY/WX    TMP DP  RH WIND       PRES   REMARKS
STURGEON BAY   CLOUDY    64  63  94 E5        29.93F
MANITOWOC      FOG       66  66 100 E3        29.92F VSB 1/4
SHEBOYGAN      FOG       67  66  97 CALM      29.91F VSB 1/4
$$

LMZ563-521-522-541>543-220900-
LAKESHORE

STATION/POSITION TIME  TEMP    WIND        PRES    VSBY  WAVE
                       AIR SEA DIR/SP/G                  HT/PER
                 (UTC) (F)     (DEG/KT/KT) (MB)    (MI)  (FT/S)
SHEBOYGAN LKSHOR 0800   67 63   90/  2/  2 1012.8F
KEWAUNEE LKSHORE 0800   66      80/  2/  2 1012.4F
NORTHPORT PIER   0800   65     110/  3/  6 1013.9S
N MID LAKE BUOY  0800   65 64   70/ 10/ 10 1013.1F         0
S GREEN BAY BUOY 0800   67     VRB  4      1013.8F
SISTER BAY LKSHO 0800   65     110/  7/  8   N/A
CHAMBERS ISLAND  0800   66      CALM  /  2 1013.9S
MENOMINEE LKSHOR 0800   68      90/  3/  4 1013.9F
$$


USA.gov is the U.S. government's official web portal to all federal, state and local government web resources and services.